Weather History for KFMN - July, 2013

Change the Weather History Date:

Sunday, July 7, 2013

  Actual Average Record
Temperature  
Mean Temperature 78 °F -  
Max Temperature 93 °F 91 °F 103 °F (1989)
Min Temperature 64 °F 58 °F 52 °F (2005)
Cooling Degree Days 14    
Growing Degree Days 28 (Base 50)    
Moisture  
Dew Point 47 °F    
Average Humidity 33    
Maximum Humidity 61    
Minimum Humidity 9    
Precipitation  
Precipitation 0.00 in - - ()
Sea Level Pressure  
Sea Level Pressure 29.87 in    
Wind  
Wind Speed 6 mph (SE)    
Max Wind Speed 13 mph    
Max Gust Speed 18 mph    
Visibility 10 miles    
Events      
Averages and records for this station are not official NWS values.
T = Trace of Precipitation, MM = Missing Value Source: NWS Daily Summary

Daily Weather History Graph

Daily Weather History Graph

Search for Another Location

Airport or City:

Trip Planner

Search our weather history database for the weather conditions in past years. The results will help you decide how hot, cold, wet, or windy it might be!

Date:

Astronomy

Jul. 07, 2013 Rise Set
Actual Time 6:00 AM MDT 8:34 PM MDT
Civil Twilight 5:30 AM MDT 9:04 PM MDT
Nautical Twilight 4:53 AM MDT 9:42 PM MDT
Astronomical Twilight 4:11 AM MDT 10:24 PM MDT
Moon 5:38 AM MDT (7/7) 8:02 PM MDT (7/7)
Length of Visible Light 15h 34m
Length of Day
14h 33m
Waning Crescent, 0% of the Moon is Illuminated
Jul 7
Waning Crescent
Jul 8
New
Jul 15
First Quarter
Jul 22
Full
Jul 29
Last Quarter

Hourly Weather History & Observations

Time (MDT) Temp. Dew Point Humidity Pressure Visibility Wind Dir Wind Speed Gust Speed Precip Events Conditions
12:53 AM 72.0 °F 52.0 °F 49% 29.90 in 10.0 mi ESE 11.5 mph - N/A   Partly Cloudy
1:53 AM 71.1 °F 53.1 °F 53% 29.89 in 10.0 mi ESE 6.9 mph - N/A   Clear
2:53 AM 69.1 °F 52.0 °F 54% 29.89 in 10.0 mi Calm Calm - N/A   Clear
3:53 AM 69.1 °F 52.0 °F 54% 29.87 in 10.0 mi East 6.9 mph - N/A   Clear
4:53 AM 66.9 °F 53.1 °F 61% 29.88 in 10.0 mi ENE 3.5 mph - N/A   Clear
5:53 AM 66.9 °F 52.0 °F 59% 29.89 in 10.0 mi East 8.1 mph - N/A   Clear
6:53 AM 66.9 °F 53.1 °F 61% 29.92 in 10.0 mi East 3.5 mph - N/A   Partly Cloudy
7:53 AM 68.0 °F 54.0 °F 61% 29.95 in 10.0 mi East 5.8 mph - N/A   Clear
8:53 AM 72.0 °F 53.1 °F 51% 29.96 in 10.0 mi East 4.6 mph - N/A   Clear
9:53 AM 75.0 °F 53.1 °F 46% 29.96 in 10.0 mi SE 4.6 mph - N/A   Clear
10:53 AM 80.1 °F 50.0 °F 35% 29.95 in 10.0 mi Variable 3.5 mph - N/A   Clear
11:53 AM 86.0 °F 46.9 °F 26% 29.92 in 10.0 mi Calm Calm - N/A   Clear
12:53 PM 87.1 °F 46.9 °F 25% 29.90 in 10.0 mi Variable 4.6 mph - N/A   Clear
1:53 PM 91.9 °F 45.0 °F 20% 29.86 in 10.0 mi WSW 9.2 mph - N/A   Clear
2:53 PM 91.0 °F 42.1 °F 18% 29.84 in 10.0 mi Variable 4.6 mph - N/A   Clear
3:53 PM 93.0 °F 44.1 °F 18% 29.81 in 10.0 mi West 9.2 mph - N/A   Clear
4:53 PM 93.9 °F 41.0 °F 16% 29.79 in 10.0 mi Variable 5.8 mph - N/A   Clear
5:53 PM 93.0 °F 41.0 °F 16% 29.77 in 10.0 mi WNW 11.5 mph 18.4 mph N/A   Clear
6:53 PM 91.9 °F 41.0 °F 17% 29.76 in 10.0 mi WSW 12.7 mph - N/A   Clear
7:53 PM 89.1 °F 41.0 °F 19% 29.78 in 10.0 mi WSW 5.8 mph - N/A   Clear
8:53 PM 84.9 °F 42.1 °F 22% 29.80 in 10.0 mi Calm Calm - N/A   Clear
9:53 PM 82.9 °F 41.0 °F 23% 29.83 in 10.0 mi Calm Calm - N/A   Clear
10:53 PM 82.0 °F 42.1 °F 24% 29.85 in 10.0 mi West 10.4 mph - N/A   Clear
11:53 PM 77.0 °F 48.0 °F 36% 29.91 in 10.0 mi SSW 10.4 mph 17.3 mph N/A   Mostly Cloudy